Location: Unspecified
(48.7670°N, 0.0000°E)
Time: 04:39:08
(UTC+00:00)

Vanguard 2 Rocket - Pass Details

Date: 04 October 2020
Orbit: 554 x 3326 km, 32.9° (Epoch: 26 October)

Event Time Altitude Azimuth Distance (km) Brightness Sun altitude
Exits shadow 03:50:23 28° 239° (WSW) 4,599 9.8 -22.5°
Maximum altitude 04:00:42 47° 187° (S) 3,984 9.9 -20.9°
Drops below altitude 10° 04:18:48 10° 122° (ESE) 5,960 11.6 -18.1°
Sets 04:23:14 0° 117° (ESE) 6,745 12.1 -17.4°
